Notices

What's New in latest Release from April 7th, 2021:

- Updated Glossary, including Speed of Maximum Gust, and Total Hourly Precipitation

- Updated national and regional climate services offices contacts and prices information

- Addition of station inventory lists for 1981-2010, 1971-2000, and 1961-1990 Normals.

If you haven't already, please take our survey and provide feedback about our website: https://eccc.sondage-survey.ca/f/LanguageSelection.aspx?s=442ca660-fcf1-47c0-95a9-59707d6fd709

Hourly Data Report for October 13, 2004

SHERBROOKE A
QUEBEC

45°26'00.000" N
71°41'00.000" W
241.40 m
7028124
71610
YSC

Download Data

Hourly Data (October 2004)
Hourly Data Report for October 13, 2004
TIME
LST
Temp Definition
°C
Dew Point Definition
°C
Rel Hum Definition
%
Precip. Amount Definition
mm

Wind Dir Definition
10's deg

Wind Spd Definition
km/h
Visibility Definition
km
Stn Press Definition
kPa
Hmdx Definition


Wind Chill Definition


Weather Definition


00:00 5.8 1.1 72   30 7 15.0 97.54      
01:00 5.2 1.0 74   22 9 15.0 97.57      
02:00 3.5 0.3 80   24 13 15.0 97.55      
03:00 4.0 0.3 77   24 7 15.0 97.61      
04:00 -0.2 -1.9 88   13 6 15.0 97.64   -2  
05:00 -0.2 -1.7 90     0 15.0 97.68      
06:00 -1.8 -3.1 91     0 15.0 97.70      
07:00 1.2 -0.4 89   13 4 24.1 97.74     Mainly Clear
08:00 5.5 2.3 80   23 4 24.1 97.77     Mainly Clear
09:00 7.6 3.0 73   25 11 24.1 97.77     Clear
10:00 9.6 2.2 60   28 13 24.1 97.72     Clear
11:00 11.4 2.3 54   28 13 24.1 97.69     Clear
12:00 13.5 1.6 44   30 15 24.1 97.63     Clear
13:00 14.5 2.3 44   29 15 24.1 97.62     Mainly Clear
14:00 15.2 1.3 39   32 15 24.1 97.61     Mainly Clear
15:00 15.0 1.7 41   29 15 24.1 97.61     Mainly Clear
16:00 14.2 1.1 41   29 11 24.1 97.63     Mainly Clear
17:00 10.9 1.3 51   28 4 15.0 97.67      
18:00 5.7 1.1 72     0 15.0 97.69      
19:00 4.1 0.9 80   9 6 15.0 97.71      
20:00 3.4 1.3 86   10 4 15.0 97.74      
21:00 2.2 -0.2 84   12 4 15.0 97.77      
22:00 1.7 -0.4 86   10 6 15.0 97.77      
23:00 0.9 -0.9 88   10 6 15.0 97.77      

Notes on Data Quality.

Legend

  • E = Estimated
  • M = Missing
  • NA = Not Available*
  • [empty] = Indicates an unobserved value
Date modified: